Date String (YYYY-MM-DD hh:mm:ss) UTC,Instrument flags,Ambient pressure (hPa),Sample flow (lpm),Bypass flow (lpm),Sample temperature (°C),Ambient temperature (°C),ASC tube jacket temperature (°C),LED temperature (°C),Box temperature (°C),Sample RH (%),Span deviation,Mass concentration (μg/m³),Mass concentration (μg/m³),Mass concentration (μg/m³)
DateTimeUTC,F1_M11,P_M11,Q1_M11,Q2_M11,T1_M11,T2_M11,T3_M11,T4_M11,T5_M11,U1_M11,ZSPAN_M11,X0_M11,X2_M11,X1_M11
2022-07-19 08:00:00,,0826.7,5.00,0.00,29.4,27.3,00.0,38.1,31.2,22.6,0000.0,0008.54,0003.73,0003.12
2022-07-19 08:01:00,,0826.7,5.01,0.00,29.4,27.5,00.0,38.1,31.2,22.4,0000.0,0008.30,0003.73,0003.11
2022-07-19 08:02:00,,0826.8,4.99,0.00,29.4,27.7,00.0,38.1,31.2,22.7,0000.0,0007.86,0003.71,0003.06
2022-07-19 08:03:00,,0826.7,4.99,0.00,29.4,27.9,00.0,38.1,31.3,22.6,0000.0,0007.82,0003.69,0003.04
2022-07-19 08:04:00,,0826.7,5.01,0.00,29.4,28.0,00.0,38.1,31.3,22.6,0000.0,0007.83,0003.70,0003.02
2022-07-19 08:05:00,,0826.7,4.99,0.00,29.4,28.2,00.0,38.1,31.4,22.6,0000.0,0008.06,0003.68,0002.99
2022-07-19 08:06:00,,0826.7,5.00,0.00,29.5,28.3,00.0,38.2,31.4,22.6,0000.0,0008.20,0003.69,0002.98
2022-07-19 08:07:00,,0826.7,5.01,0.00,29.5,28.4,00.0,38.2,31.5,22.5,0000.0,0008.43,0003.76,0002.97
2022-07-19 08:08:00,,0826.7,4.99,0.00,29.5,28.5,00.0,38.2,31.5,22.5,0000.0,0008.66,0003.81,0002.96
2022-07-19 08:09:00,,0826.7,5.01,0.00,29.6,28.6,00.0,38.2,31.6,22.4,0000.0,0008.58,0003.86,0002.95
2022-07-19 08:10:00,,0826.7,4.99,0.00,29.6,28.6,00.0,38.3,31.6,22.3,0000.0,0008.67,0003.92,0002.96
2022-07-19 08:11:00,,0826.7,5.00,0.00,29.6,28.0,00.0,38.2,31.6,22.3,0000.0,0008.81,0003.96,0002.96
2022-07-19 08:12:00,,0826.7,5.02,0.00,29.6,27.2,00.0,38.1,31.4,22.4,0000.0,0008.79,0003.94,0002.94
2022-07-19 08:13:00,,0826.7,4.99,0.00,29.5,27.0,00.0,38.1,31.3,22.4,0000.0,0009.12,0003.91,0002.93
2022-07-19 08:14:00,,0826.7,5.00,0.00,29.5,27.1,00.0,38.1,31.2,22.5,0000.0,0009.37,0003.92,0002.94
2022-07-19 08:15:00,,0826.7,5.00,0.00,29.4,27.2,00.0,38.1,31.2,22.5,0000.0,0010.10,0003.96,0002.96
2022-07-19 08:16:00,,0826.7,5.00,0.00,29.4,27.4,00.0,38.1,31.2,22.4,0000.0,0010.33,0004.01,0002.98
2022-07-19 08:17:00,,0826.7,4.99,0.00,29.4,27.6,00.0,38.1,31.2,22.4,0000.0,0010.06,0004.05,0003.00
2022-07-19 08:18:00,,0826.7,5.01,0.00,29.4,27.7,00.0,38.1,31.3,22.5,0000.0,0009.88,0004.04,0003.01
2022-07-19 08:19:00,,0826.7,5.00,0.00,29.4,27.9,00.0,38.2,31.3,22.4,0000.0,0009.88,0004.03,0003.02
2022-07-19 08:20:00,,0826.7,5.00,0.00,29.4,28.1,00.0,38.2,31.3,22.4,0000.0,0009.84,0004.02,0003.05
2022-07-19 08:21:00,,0826.7,5.00,0.00,29.5,28.2,00.0,38.2,31.4,22.4,0000.0,0009.78,0004.01,0003.07
2022-07-19 08:22:00,,0826.7,5.01,0.00,29.5,28.3,00.0,38.2,31.5,22.4,0000.0,0009.68,0004.02,0003.11
2022-07-19 08:23:00,,0826.7,4.99,0.00,29.5,28.4,00.0,38.2,31.5,22.4,0000.0,0009.70,0004.03,0003.12
2022-07-19 08:24:00,,0826.7,5.00,0.00,29.6,28.5,00.0,38.2,31.5,22.4,0000.0,0009.74,0004.11,0003.14
2022-07-19 08:25:00,,0826.7,5.00,0.00,29.6,28.6,00.0,38.3,31.6,22.4,0000.0,0009.44,0004.17,0003.14
2022-07-19 08:26:00,,0826.7,5.00,0.00,29.6,28.3,00.0,38.2,31.6,22.4,0000.0,0009.15,0004.17,0003.14
2022-07-19 08:27:00,,0826.7,4.99,0.00,29.6,27.7,00.0,38.2,31.5,22.3,0000.0,0008.79,0004.17,0003.14
2022-07-19 08:28:00,,0826.7,5.00,0.00,29.6,27.5,00.0,38.2,31.4,22.4,0000.0,0009.28,0004.17,0003.14
2022-07-19 08:29:00,,0826.7,5.00,0.00,29.5,27.6,00.0,38.2,31.4,22.5,0000.0,0009.33,0004.18,0003.14
2022-07-19 08:30:00,,0826.7,5.00,0.00,29.5,27.7,00.0,38.2,31.3,22.5,0000.0,0009.34,0004.19,0003.14
2022-07-19 08:31:00,,0826.7,5.00,0.00,29.5,27.8,00.0,38.2,31.4,22.6,0000.0,0009.25,0004.19,0003.14
2022-07-19 08:32:00,,0826.7,5.00,0.00,29.5,28.0,00.0,38.2,31.4,22.5,0000.0,0009.32,0004.17,0003.13
2022-07-19 08:33:00,,0826.7,5.00,0.00,29.5,28.1,00.0,38.2,31.4,22.4,0000.0,0009.65,0004.13,0003.13
2022-07-19 08:34:00,,0826.7,4.99,0.00,29.6,28.2,00.0,38.3,31.5,22.4,0000.0,0010.20,0004.14,0003.13
2022-07-19 08:35:00,,0826.7,5.01,0.00,29.6,28.3,00.0,38.3,31.5,22.3,0000.0,0010.12,0004.09,0003.13
2022-07-19 08:36:00,,0826.7,4.99,0.00,29.6,28.5,00.0,38.3,31.6,22.3,0000.0,0010.10,0004.07,0003.14
2022-07-19 08:37:00,,0826.7,5.00,0.00,29.6,28.6,00.0,38.3,31.6,22.4,0000.0,0010.16,0004.08,0003.14
2022-07-19 08:38:00,,0826.6,5.01,0.00,29.7,28.5,00.0,38.3,31.6,22.4,0000.0,0010.54,0004.06,0003.14
2022-07-19 08:39:00,,0826.5,4.99,0.00,29.7,27.7,00.0,38.2,31.5,22.2,0000.0,0010.76,0004.08,0003.15
2022-07-19 08:40:00,,0826.5,5.01,0.00,29.6,27.0,00.0,38.2,31.4,22.3,0000.0,0010.75,0004.10,0003.16
2022-07-19 08:41:00,,0826.5,4.99,0.00,29.6,26.9,00.0,38.2,31.3,22.3,0000.0,0011.00,0004.11,0003.15
2022-07-19 08:42:00,,0826.5,4.99,0.00,29.5,27.0,00.0,38.2,31.2,22.5,0000.0,0011.04,0004.13,0003.15
2022-07-19 08:43:00,,0826.6,5.00,0.00,29.4,27.2,00.0,38.2,31.2,22.6,0000.0,0011.04,0004.16,0003.15
2022-07-19 08:44:00,,0826.7,5.01,0.00,29.4,27.4,00.0,38.2,31.2,22.7,0000.0,0011.35,0004.21,0003.15
2022-07-19 08:45:00,,0826.5,5.00,0.00,29.4,27.6,00.0,38.2,31.3,22.8,0000.0,0011.14,0004.25,0003.15
2022-07-19 08:46:00,,0826.6,4.99,0.00,29.4,27.7,00.0,38.2,31.3,22.8,0000.0,0011.22,0004.30,0003.16
2022-07-19 08:47:00,,0826.6,5.01,0.00,29.4,27.9,00.0,38.2,31.3,22.8,0000.0,0011.17,0004.30,0003.18
2022-07-19 08:48:00,,0826.5,4.99,0.00,29.5,28.1,00.0,38.2,31.4,22.7,0000.0,0010.97,0004.28,0003.18
2022-07-19 08:49:00,,0826.6,5.01,0.00,29.5,28.2,00.0,38.2,31.4,22.6,0000.0,0010.44,0004.30,0003.18
2022-07-19 08:50:00,,0826.5,4.99,0.00,29.5,28.3,00.0,38.2,31.4,22.6,0000.0,0009.72,0004.32,0003.17
2022-07-19 08:51:00,,0826.5,5.01,0.00,29.5,28.4,00.0,38.2,31.5,22.6,0000.0,0009.77,0004.32,0003.18
2022-07-19 08:52:00,,0826.5,4.99,0.00,29.6,28.5,00.0,38.3,31.5,22.5,0000.0,0009.63,0004.33,0003.18
2022-07-19 08:53:00,,0826.5,5.01,0.00,29.6,28.6,00.0,38.3,31.6,22.4,0000.0,0009.49,0004.29,0003.18
2022-07-19 08:54:00,,0826.5,5.00,0.00,29.6,28.5,00.0,38.3,31.6,22.4,0000.0,0009.48,0004.26,0003.17
2022-07-19 08:55:00,,0826.5,5.00,0.00,29.6,27.6,00.0,38.2,31.5,22.3,0000.0,0009.23,0004.20,0003.18
2022-07-19 08:56:00,,0826.5,5.01,0.00,29.6,27.0,00.0,38.2,31.4,22.4,0000.0,0009.33,0004.17,0003.17
2022-07-19 08:57:00,,0826.5,4.99,0.00,29.5,26.9,00.0,38.2,31.3,22.4,0000.0,0009.73,0004.15,0003.16
2022-07-19 08:58:00,,0826.5,5.00,0.00,29.4,27.0,00.0,38.1,31.2,22.7,0000.0,0009.89,0004.18,0003.15
2022-07-19 08:59:00,,0826.5,5.01,0.00,29.4,27.2,00.0,38.1,31.2,22.6,0000.0,0009.97,0004.19,0003.15
